Regional Weather Roundup
Issued by NWS Spokane, WA

Home | Current Version | Previous Version | Text Only | Print | Product List | Glossary On
Versions: 1 2 3 4 5 6 7 8 9 10 11 12 13 14 15 16 17 18 19 20 21 22 23 24 25 26 27 28 29 30 31 32 33 34 35 36 37 38 39 40 41 42 43 44 45 46 47 48 49 50
000
NZUS01 KOTX 300000
RWROTX
EASTERN WASHINGTON/NORTHERN IDAHO ROUNDUP
NATIONAL WEATHER SERVICE, SPOKANE WA
500 PM PDT SUN MAR 29 2015

Note: "fair" indicated few or no clouds below 12,000 feet with no
significant weather and/or obstructions to visibility.

...NORTHEAST WASHINGTON AND NORTHERN IDAHO PANHANDLE...

CITY           SKY/WX    TMP DP  RH WIND       PRES   REMARKS
SPOKANE INTL   CLOUDY    58  35  42 SW14      30.14F
SPOKANE DOWNTO CLOUDY    60  38  43 W10       30.15F
COEUR D ALENE  CLOUDY    57  39  51 SW13      30.15F
DEER PARK      CLOUDY    57  40  52 S9        30.14F

...SOUTHEAST WASHINGTON AND SOUTHERN IDAHO PANHANDLE...

CITY           SKY/WX    TMP DP  RH WIND       PRES   REMARKS
WALLA WALLA    MOSUNNY   68  36  30 NW6       30.14F
PULLMAN/MOSCOW MOSUNNY   60  36  40 W8        30.18F
LOWELL           N/A     57  44  62 N3        30.14F

...COLUMBIA BASIN...

CITY           SKY/WX    TMP DP  RH WIND       PRES   REMARKS
EPHRATA        CLOUDY    64  38  38 SW14      30.11F
MOSES LAKE     CLOUDY    66  37  34 SW10      30.13F
TRI CITIES     MOSUNNY   72  29  20 SW13      30.12F
HERMISTON      MOSUNNY   71  32  23 W8        30.12F
PENDLETON      SUNNY     65  41  41 NW5       30.14S

...EAST SLOPES CASCADES...

CITY           SKY/WX    TMP DP  RH WIND       PRES   REMARKS
THE DALLES     MOSUNNY   69  35  28 NW16G24   30.13F
YAKIMA         CLOUDY    68  38  33 SE3       30.13F
ELLENSBURG     PTSUNNY   63  39  41 NW14      30.12F
WENATCHEE      CLOUDY    65  35  33 VRB3      30.10F
OMAK           PTSUNNY   64  35  34 S13       30.08F

...SOUTHERN BRITISH COLUMBIA...

CITY           SKY/WX    TMP DP  RH WIND       PRES   REMARKS

...WESTERN MONTANA...

CITY           SKY/WX    TMP DP  RH WIND       PRES   REMARKS
MISSOULA       PTSUNNY   56  32  40 W10       30.17F

...NEIGHBORING CITIES...

CITY           SKY/WX    TMP DP  RH WIND       PRES   REMARKS
SEATTLE        CLOUDY    59  43  55 SW8       30.21F



USA.gov is the U.S. government's official web portal to all federal, state and local government web resources and services.